Location: Recife
(8.0585°S, 34.8848°W)
Time: 21:14:14
(UTC-03:00)

Explorer 11/Cluster Stage 4 - Pass Details

Date: 14 April 2026
Orbit: 463 x 1174 km, 28.8° (Epoch: 16 May)

Event Time Altitude Azimuth Distance (km) Brightness Sun altitude
Rises 07:18:05 0° 254° (WSW) 3,116 9.1 27.3°
Reaches altitude 10° 07:20:26 10° 261° (W) 2,302 8.5 27.9°
Maximum altitude 07:25:40 43° 331° (NNW) 1,224 7.8 29.1°
Drops below altitude 10° 07:31:58 10° 41° (NE) 2,773 10.4 30.6°
Sets 07:35:03 0° 47° (NE) 3,823 11.0 31.3°
